Time,TemperatureF,DewpointF,PressureIn,WindDirection,WindDirectionDegrees,WindSpeedMPH,WindSpeedGustMPH,Humidity,HourlyPrecipIn,Conditions,Clouds,dailyrainin,SoftwareType,DateUTC
2013-02-04 00:01:00,31.0,28.0,30.11,WNW,290,0.0,2.0,88,0.00,,,0.09,,2013-02-04 08:01:00,
2013-02-04 00:21:00,30.0,27.0,30.11,NW,309,0.0,0.0,88,0.00,,,0.09,,2013-02-04 08:21:00,
2013-02-04 00:31:00,30.0,27.0,30.11,NW,309,0.0,0.0,88,0.00,,,0.09,,2013-02-04 08:31:00,
2013-02-04 00:41:00,30.0,27.0,30.11,NW,309,0.0,0.0,88,0.00,,,0.09,,2013-02-04 08:41:00,
2013-02-04 00:52:00,30.0,27.0,30.11,NW,309,0.0,0.0,88,0.00,,,0.08,,2013-02-04 08:52:00,
2013-02-04 01:01:00,30.0,27.0,30.11,NW,309,0.0,0.0,88,0.00,,,0.08,,2013-02-04 09:01:00,
2013-02-04 01:11:00,30.0,27.0,30.11,NW,309,0.0,0.0,88,0.00,,,0.08,,2013-02-04 09:11:00,
2013-02-04 01:21:00,30.0,27.0,30.11,NW,309,0.0,0.0,88,0.00,,,0.08,,2013-02-04 09:21:00,
2013-02-04 01:31:00,29.0,26.0,30.11,NW,309,0.0,0.0,88,0.00,,,0.08,,2013-02-04 09:31:00,
2013-02-04 01:41:00,29.0,26.0,30.11,NW,309,0.0,0.0,88,0.00,,,0.08,,2013-02-04 09:41:00,
2013-02-04 01:51:00,29.0,26.0,30.11,NW,309,0.0,0.0,88,0.00,,,0.08,,2013-02-04 09:51:00,
2013-02-04 02:01:00,29.0,26.0,30.11,NW,309,0.0,0.0,88,0.00,,,0.08,,2013-02-04 10:01:00,
2013-02-04 02:21:00,29.0,26.0,30.11,NW,309,0.0,0.0,89,0.00,,,0.08,,2013-02-04 10:21:00,
2013-02-04 02:32:00,29.0,26.0,30.11,NW,309,0.0,0.0,89,0.00,,,0.08,,2013-02-04 10:32:00,
2013-02-04 02:41:00,29.0,26.0,30.11,NW,309,0.0,0.0,89,0.00,,,0.08,,2013-02-04 10:41:00,
2013-02-04 02:51:00,29.0,26.0,30.11,NE,44,1.0,4.0,89,0.00,,,0.05,,2013-02-04 10:51:00,
2013-02-04 03:01:00,29.0,26.0,30.11,North,9,0.0,2.0,89,0.00,,,0.05,,2013-02-04 11:01:00,
2013-02-04 03:22:00,29.0,26.0,30.11,WSW,249,0.0,4.0,89,0.00,,,0.05,,2013-02-04 11:22:00,
2013-02-04 03:32:00,29.0,26.0,30.10,WSW,249,0.0,0.0,89,0.00,,,0.05,,2013-02-04 11:32:00,
2013-02-04 03:41:00,29.0,26.0,30.10,WSW,249,0.0,0.0,89,0.00,,,0.05,,2013-02-04 11:41:00,
2013-02-04 03:52:00,29.0,26.0,30.10,ENE,58,0.0,4.0,89,0.00,,,0.03,,2013-02-04 11:52:00,
2013-02-04 04:02:00,31.0,28.0,30.10,West,281,0.0,3.0,90,0.00,,,0.03,,2013-02-04 12:02:00,
2013-02-04 04:12:00,31.0,28.0,30.10,West,281,0.0,3.0,90,0.00,,,0.03,,2013-02-04 12:12:00,
2013-02-04 04:21:00,31.0,28.0,30.10,WNW,284,0.0,3.0,89,0.00,,,0.03,,2013-02-04 12:21:00,
2013-02-04 04:32:00,35.0,32.0,30.10,NW,304,0.0,6.0,88,0.00,,,0.03,,2013-02-04 12:32:00,
2013-02-04 04:42:00,35.0,32.0,30.10,NW,304,0.0,6.0,88,0.00,,,0.03,,2013-02-04 12:42:00,
2013-02-04 04:52:00,34.0,30.0,30.10,NW,306,1.0,4.0,84,0.00,,,0.02,,2013-02-04 12:52:00,
2013-02-04 05:02:00,37.0,29.0,30.10,NW,306,2.0,4.0,74,0.00,,,0.02,,2013-02-04 13:02:00,
2013-02-04 05:11:00,38.0,29.0,30.10,NNE,33,3.0,6.0,71,0.00,,,0.02,,2013-02-04 13:11:00,
2013-02-04 05:21:00,38.0,29.0,30.10,NNE,33,3.0,6.0,71,0.00,,,0.02,,2013-02-04 13:21:00,
2013-02-04 05:32:00,38.0,28.0,30.11,NNE,15,0.0,2.0,68,0.00,,,0.02,,2013-02-04 13:32:00,
2013-02-04 05:41:00,38.0,28.0,30.11,NNE,15,0.0,2.0,68,0.00,,,0.02,,2013-02-04 13:41:00,
2013-02-04 05:51:00,37.0,28.0,30.11,North,355,0.0,0.0,70,0.00,,,0.00,,2013-02-04 13:51:00,
2013-02-04 06:02:00,38.0,28.0,30.11,North,355,0.0,0.0,67,0.00,,,0.00,,2013-02-04 14:02:00,
2013-02-04 06:11:00,38.0,28.0,30.11,North,355,0.0,0.0,67,0.00,,,0.00,,2013-02-04 14:11:00,
2013-02-04 06:21:00,38.0,28.0,30.11,North,355,0.0,0.0,67,0.00,,,0.00,,2013-02-04 14:21:00,
2013-02-04 06:32:00,38.0,27.0,30.12,North,355,0.0,0.0,65,0.00,,,0.00,,2013-02-04 14:32:00,
2013-02-04 06:42:00,38.0,27.0,30.12,North,355,0.0,0.0,65,0.00,,,0.00,,2013-02-04 14:42:00,
2013-02-04 06:52:00,36.0,26.0,30.13,North,355,0.0,0.0,68,0.00,,,0.00,,2013-02-04 14:52:00,
2013-02-04 07:03:00,36.0,27.0,30.13,North,355,0.0,0.0,69,0.00,,,0.00,,2013-02-04 15:03:00,
2013-02-04 07:11:00,36.0,27.0,30.13,North,355,0.0,0.0,69,0.00,,,0.00,,2013-02-04 15:11:00,
2013-02-04 07:22:00,35.0,27.0,30.13,North,355,0.0,0.0,71,0.00,,,0.00,,2013-02-04 15:22:00,
2013-02-04 07:33:00,34.0,27.0,30.14,North,355,0.0,0.0,75,0.00,,,0.00,,2013-02-04 15:33:00,
2013-02-04 07:42:00,34.0,27.0,30.14,North,355,0.0,0.0,75,0.00,,,0.00,,2013-02-04 15:42:00,
2013-02-04 07:52:00,34.0,28.0,30.14,North,355,0.0,0.0,77,0.00,,,0.00,,2013-02-04 15:52:00,
2013-02-04 08:02:00,36.0,29.0,30.15,NW,313,0.0,0.0,75,0.01,,,0.01,,2013-02-04 16:02:00,
2013-02-04 08:11:00,36.0,29.0,30.15,NW,313,0.0,0.0,75,0.01,,,0.01,,2013-02-04 16:11:00,
2013-02-04 08:21:00,39.0,31.0,30.15,NE,51,0.0,0.0,72,0.01,,,0.01,,2013-02-04 16:21:00,
2013-02-04 08:32:00,42.0,33.0,30.16,NE,51,0.0,0.0,71,0.01,,,0.01,,2013-02-04 16:32:00,
2013-02-04 08:42:00,42.0,33.0,30.16,NE,51,0.0,0.0,71,0.01,,,0.01,,2013-02-04 16:42:00,
2013-02-04 08:51:00,45.0,35.0,30.16,NE,51,0.0,1.0,67,0.01,,,0.01,,2013-02-04 16:51:00,
2013-02-04 09:02:00,49.0,34.0,30.16,NE,51,0.0,1.0,57,0.00,,,0.01,,2013-02-04 17:02:00,
2013-02-04 09:11:00,52.0,29.0,30.16,NNW,348,0.0,8.0,41,0.00,,,0.01,,2013-02-04 17:11:00,
2013-02-04 09:21:00,52.0,29.0,30.16,NNW,348,0.0,8.0,41,0.00,,,0.01,,2013-02-04 17:21:00,
2013-02-04 09:31:00,55.0,28.0,30.16,North,355,2.0,9.0,35,0.00,,,0.01,,2013-02-04 17:31:00,
2013-02-04 09:41:00,55.0,28.0,30.16,North,350,1.0,7.0,35,0.00,,,0.01,,2013-02-04 17:41:00,
2013-02-04 09:51:00,55.0,28.0,30.16,North,350,1.0,7.0,35,0.00,,,0.01,,2013-02-04 17:51:00,
2013-02-04 10:03:00,56.0,28.0,30.17,North,5,2.0,7.0,34,0.00,,,0.01,,2013-02-04 18:03:00,
2013-02-04 10:11:00,56.0,28.0,30.17,North,5,2.0,7.0,34,0.00,,,0.01,,2013-02-04 18:11:00,
2013-02-04 10:21:00,57.0,26.0,30.17,North,9,4.0,9.0,30,0.00,,,0.01,,2013-02-04 18:21:00,
2013-02-04 10:31:00,56.0,24.0,30.17,NNE,13,2.0,11.0,29,0.00,,,0.01,,2013-02-04 18:31:00,
2013-02-04 10:41:00,56.0,24.0,30.17,NNE,13,2.0,11.0,29,0.00,,,0.01,,2013-02-04 18:41:00,
2013-02-04 10:52:00,57.0,26.0,30.17,NNE,20,1.0,9.0,30,0.00,,,0.01,,2013-02-04 18:52:00,
2013-02-04 11:01:00,57.0,25.0,30.17,NNW,331,1.0,6.0,29,0.00,,,0.01,,2013-02-04 19:01:00,
2013-02-04 11:11:00,57.0,25.0,30.17,NNW,331,1.0,6.0,29,0.00,,,0.01,,2013-02-04 19:11:00,
2013-02-04 11:21:00,58.0,26.0,30.16,NNE,25,1.0,6.0,29,0.00,,,0.01,,2013-02-04 19:21:00,
2013-02-04 11:31:00,58.0,23.0,30.16,NE,40,0.0,8.0,26,0.00,,,0.01,,2013-02-04 19:31:00,
2013-02-04 11:41:00,58.0,23.0,30.16,NE,40,0.0,8.0,26,0.00,,,0.01,,2013-02-04 19:41:00,
2013-02-04 11:51:00,58.0,26.0,30.15,North,5,0.0,7.0,29,0.00,,,0.01,,2013-02-04 19:51:00,
2013-02-04 12:01:00,58.0,23.0,30.14,NW,311,1.0,10.0,26,0.00,,,0.01,,2013-02-04 20:01:00,
2013-02-04 12:11:00,58.0,23.0,30.14,NW,311,1.0,10.0,26,0.00,,,0.01,,2013-02-04 20:11:00,
2013-02-04 12:21:00,59.0,26.0,30.14,NW,325,0.0,10.0,28,0.00,,,0.01,,2013-02-04 20:21:00,
2013-02-04 12:32:00,60.0,27.0,30.12,ENE,64,3.0,7.0,28,0.00,,,0.01,,2013-02-04 20:32:00,
2013-02-04 12:42:00,60.0,27.0,30.12,ENE,64,3.0,7.0,28,0.00,,,0.01,,2013-02-04 20:42:00,
2013-02-04 12:52:00,59.0,21.0,30.11,NE,50,4.0,10.0,23,0.00,,,0.01,,2013-02-04 20:52:00,
2013-02-04 13:01:00,60.0,22.0,30.11,NE,47,4.0,8.0,23,0.00,,,0.01,,2013-02-04 21:01:00,
2013-02-04 13:11:00,60.0,22.0,30.11,NE,47,4.0,8.0,23,0.00,,,0.01,,2013-02-04 21:11:00,
2013-02-04 13:22:00,60.0,21.0,30.10,NNE,26,3.0,9.0,22,0.00,,,0.01,,2013-02-04 21:22:00,
2013-02-04 13:31:00,60.0,23.0,30.09,NE,56,6.0,11.0,24,0.00,,,0.01,,2013-02-04 21:31:00,
2013-02-04 13:42:00,60.0,23.0,30.09,NE,56,6.0,11.0,24,0.00,,,0.01,,2013-02-04 21:42:00,
2013-02-04 13:51:00,60.0,22.0,30.09,NE,46,4.0,7.0,23,0.00,,,0.01,,2013-02-04 21:51:00,
2013-02-04 14:02:00,60.0,21.0,30.08,ENE,69,4.0,13.0,22,0.00,,,0.01,,2013-02-04 22:02:00,
2013-02-04 14:11:00,60.0,21.0,30.08,ENE,69,4.0,13.0,22,0.00,,,0.01,,2013-02-04 22:11:00,
2013-02-04 14:21:00,59.0,20.0,30.08,North,5,1.0,11.0,22,0.00,,,0.01,,2013-02-04 22:21:00,
2013-02-04 14:32:00,60.0,22.0,30.07,North,5,3.0,10.0,23,0.00,,,0.01,,2013-02-04 22:32:00,
2013-02-04 14:41:00,60.0,22.0,30.07,North,5,3.0,10.0,23,0.00,,,0.01,,2013-02-04 22:41:00,
2013-02-04 14:51:00,59.0,21.0,30.07,North,5,1.0,9.0,23,0.00,,,0.01,,2013-02-04 22:51:00,
2013-02-04 15:01:00,60.0,22.0,30.06,ENE,72,3.0,9.0,23,0.00,,,0.01,,2013-02-04 23:01:00,
2013-02-04 15:11:00,60.0,22.0,30.06,ENE,72,3.0,9.0,23,0.00,,,0.01,,2013-02-04 23:11:00,
2013-02-04 15:21:00,60.0,22.0,30.06,ESE,104,3.0,12.0,23,0.00,,,0.01,,2013-02-04 23:21:00,
2013-02-04 15:32:00,59.0,23.0,30.06,ENE,74,4.0,10.0,25,0.00,,,0.01,,2013-02-04 23:32:00,
2013-02-04 15:41:00,59.0,23.0,30.06,ENE,74,4.0,10.0,25,0.00,,,0.01,,2013-02-04 23:41:00,
2013-02-04 15:52:00,59.0,22.0,30.06,East,86,2.0,9.0,24,0.00,,,0.01,,2013-02-04 23:52:00,
2013-02-04 16:01:00,59.0,23.0,30.06,East,90,1.0,6.0,25,0.00,,,0.01,,2013-02-05 00:01:00,
2013-02-04 16:11:00,59.0,23.0,30.06,East,90,1.0,6.0,25,0.00,,,0.01,,2013-02-05 00:11:00,
2013-02-04 16:21:00,58.0,23.0,30.06,NNE,21,3.0,9.0,26,0.00,,,0.01,,2013-02-05 00:21:00,
2013-02-04 16:31:00,57.0,30.0,30.06,NW,309,1.0,5.0,35,0.00,,,0.01,,2013-02-05 00:31:00,
2013-02-04 16:41:00,57.0,30.0,30.06,NW,309,1.0,5.0,35,0.00,,,0.01,,2013-02-05 00:41:00,
2013-02-04 16:51:00,57.0,32.0,30.06,NW,308,0.0,4.0,38,0.00,,,0.01,,2013-02-05 00:51:00,
2013-02-04 17:01:00,55.0,31.0,30.06,NW,308,0.0,0.0,40,0.00,,,0.01,,2013-02-05 01:01:00,
2013-02-04 17:11:00,55.0,31.0,30.06,NW,308,0.0,0.0,40,0.00,,,0.01,,2013-02-05 01:11:00,
2013-02-04 17:21:00,52.0,33.0,30.06,NW,308,0.0,0.0,48,0.00,,,0.01,,2013-02-05 01:21:00,
2013-02-04 17:32:00,49.0,34.0,30.06,NW,308,0.0,0.0,55,0.00,,,0.01,,2013-02-05 01:32:00,
2013-02-04 17:42:00,49.0,34.0,30.06,NW,308,0.0,0.0,55,0.00,,,0.01,,2013-02-05 01:42:00,
2013-02-04 17:52:00,47.0,33.0,30.07,NW,308,0.0,0.0,58,0.00,,,0.01,,2013-02-05 01:52:00,
2013-02-04 18:01:00,47.0,33.0,30.07,NW,308,0.0,0.0,58,0.00,,,0.01,,2013-02-05 02:01:00,
2013-02-04 18:21:00,44.0,32.0,30.07,NW,308,0.0,0.0,63,0.00,,,0.01,,2013-02-05 02:21:00,
2013-02-04 18:31:00,44.0,32.0,30.08,NW,308,0.0,0.0,63,0.00,,,0.01,,2013-02-05 02:31:00,
2013-02-04 18:41:00,44.0,32.0,30.08,NW,308,0.0,0.0,63,0.00,,,0.01,,2013-02-05 02:41:00,
2013-02-04 18:52:00,42.0,31.0,30.08,NW,308,0.0,0.0,65,0.00,,,0.01,,2013-02-05 02:52:00,
2013-02-04 19:01:00,41.0,31.0,30.09,NW,308,0.0,0.0,67,0.00,,,0.01,,2013-02-05 03:01:00,
2013-02-04 19:21:00,40.0,31.0,30.10,NW,308,0.0,0.0,69,0.00,,,0.01,,2013-02-05 03:21:00,
2013-02-04 19:31:00,39.0,30.0,30.10,NW,308,0.0,0.0,70,0.00,,,0.01,,2013-02-05 03:31:00,
2013-02-04 19:41:00,39.0,30.0,30.10,NW,308,0.0,0.0,70,0.00,,,0.01,,2013-02-05 03:41:00,
2013-02-04 19:52:00,39.0,30.0,30.10,NW,308,0.0,0.0,70,0.00,,,0.01,,2013-02-05 03:52:00,
2013-02-04 20:01:00,37.0,29.0,30.11,NW,308,0.0,0.0,73,0.00,,,0.01,,2013-02-05 04:01:00,
2013-02-04 20:21:00,37.0,29.0,30.11,NW,308,0.0,0.0,74,0.00,,,0.01,,2013-02-05 04:21:00,
2013-02-04 20:31:00,35.0,28.0,30.12,NW,308,0.0,0.0,75,0.00,,,0.01,,2013-02-05 04:31:00,
2013-02-04 20:41:00,35.0,28.0,30.12,NW,308,0.0,0.0,75,0.00,,,0.01,,2013-02-05 04:41:00,
2013-02-04 20:52:00,35.0,29.0,30.12,NW,308,0.0,0.0,78,0.00,,,0.01,,2013-02-05 04:52:00,
2013-02-04 21:02:00,34.0,28.0,30.12,NW,308,0.0,0.0,78,0.00,,,0.01,,2013-02-05 05:02:00,
2013-02-04 21:21:00,34.0,28.0,30.13,NW,308,0.0,0.0,79,0.00,,,0.01,,2013-02-05 05:21:00,
2013-02-04 21:31:00,32.0,26.0,30.13,NW,308,0.0,0.0,79,0.00,,,0.01,,2013-02-05 05:31:00,
2013-02-04 21:41:00,32.0,26.0,30.13,NW,308,0.0,0.0,79,0.00,,,0.01,,2013-02-05 05:41:00,
2013-02-04 21:52:00,32.0,27.0,30.13,NW,308,0.0,0.0,81,0.00,,,0.01,,2013-02-05 05:52:00,
2013-02-04 22:01:00,32.0,27.0,30.13,NW,308,0.0,0.0,81,0.00,,,0.01,,2013-02-05 06:01:00,
2013-02-04 22:21:00,31.0,26.0,30.14,NW,308,0.0,0.0,82,0.00,,,0.01,,2013-02-05 06:21:00,
2013-02-04 22:31:00,30.0,25.0,30.14,NW,308,0.0,0.0,82,0.00,,,0.01,,2013-02-05 06:31:00,
2013-02-04 22:41:00,30.0,25.0,30.14,NW,308,0.0,0.0,82,0.00,,,0.01,,2013-02-05 06:41:00,
2013-02-04 22:51:00,30.0,25.0,30.14,NW,308,0.0,0.0,83,0.00,,,0.01,,2013-02-05 06:51:00,
2013-02-04 23:01:00,30.0,25.0,30.14,NW,308,0.0,0.0,83,0.00,,,0.01,,2013-02-05 07:01:00,
2013-02-04 23:22:00,30.0,26.0,30.14,NW,308,0.0,0.0,84,0.00,,,0.01,,2013-02-05 07:22:00,
2013-02-04 23:31:00,29.0,25.0,30.13,NW,308,0.0,0.0,84,0.00,,,0.01,,2013-02-05 07:31:00,
2013-02-04 23:41:00,29.0,25.0,30.13,NW,308,0.0,0.0,84,0.00,,,0.01,,2013-02-05 07:41:00,
2013-02-04 23:51:00,29.0,25.0,30.13,NW,308,0.0,0.0,84,0.00,,,0.01,,2013-02-05 07:51:00,